Vorticity
2 1 1 1 2 2 1 1 1 1 0 -1 -2 -2 -2 -2 -2 -1 -1 -0 -0 0 0 -0 -0 1 4 8 9 7 5 4 3 2 2 1 1 1 2 3 4 5 6 7 8 8 8 8 7 6 6 5 5 5 5 6 7 8 8 9 9 9 9 9 9 8 8 7 7
3 2 2 2 2 2 1 0 -0 -1 -1 -2 -3 -3 -2 -2 -2 -2 -2 -2 -2 -2 -1 -0 2 4 8 10 8 5 2 1 2 2 2 2 1 1 1 2 3 4 6 7 7 8 8 8 7 6 6 5 5 5 5 6 7 8 9 9 10 9 9 9 9 8 8 7 7
3 3 2 2 2 1 1 -0 -1 -2 -3 -3 -3 -2 -1 -1 -1 -2 -3 -4 -3 -2 -0 1 4 7 9 8 5 2 1 2 4 5 5 4 3 3 2 2 3 4 5 6 7 8 8 8 7 7 6 5 5 5 5 6 8 9 9 10 10 10 9 9 9 8 8 7 7
4 4 3 2 2 1 -0 -1 -2 -2 -3 -3 -2 -1 -0 -0 -1 -2 -3 -3 0 3 4 4 6 7 7 5 2 2 4 8 10 11 10 8 6 5 4 4 4 5 5 6 7 8 8 8 8 7 6 5 4 5 5 5 8 9 10 10 10 10 9 9 9 8 8 7 7
5 4 3 2 1 0 -0 -1 -1 -2 -2 -2 -1 -1 -1 -1 -1 -1 0 3 7 8 8 5 5 5 5 3 4 7 10 13 14 14 13 11 9 8 7 7 6 6 6 7 7 8 8 9 8 7 6 5 4 4 5 6 8 10 10 11 10 10 9 9 8 8 7 7 7
5 4 4 3 2 1 1 0 -0 -1 -2 -2 -2 -2 -2 -2 -2 1 5 10 12 10 7 3 3 3 3 5 8 11 13 15 14 13 12 11 10 10 10 9 8 7 7 7 8 8 9 9 9 8 6 5 4 4 5 7 9 10 10 11 11 10 9 9 8 8 7 7 7
5 4 4 3 3 2 2 1 1 -1 -2 -3 -3 -4 -4 -4 -2 3 7 10 5 0 -3 -3 -1 1 3 6 9 11 12 12 10 9 8 8 9 10 10 10 9 8 7 7 8 9 9 10 9 8 7 5 4 5 6 8 10 10 11 11 10 10 9 8 8 7 7 7 7
5 5 4 4 4 3 3 2 1 -0 -2 -4 -5 -6 -6 -5 -3 -1 -0 -3 -10 -12 -12 -6 -1 2 4 7 9 9 9 7 6 5 5 6 7 8 9 9 9 8 8 8 8 9 10 10 10 8 7 5 5 5 6 8 10 11 11 11 10 10 9 8 7 7 7 6 6
5 5 5 5 5 4 3 2 1 -1 -3 -4 -5 -6 -6 -6 -5 -6 -8 -11 -14 -14 -11 -4 1 5 7 7 7 6 5 4 3 2 2 3 5 6 8 8 8 8 8 8 9 10 10 11 11 9 7 5 5 5 6 9 11 12 12 11 10 9 9 8 7 7 7 6 6
4 5 5 6 6 5 3 1 0 -2 -3 -4 -4 -3 -3 -2 -2 -3 -5 -8 -9 -7 -3 1 6 8 9 7 5 4 3 2 1 0 -0 1 2 4 6 7 7 7 7 7 9 10 11 12 11 10 8 6 5 6 7 10 11 12 12 11 9 9 8 8 7 7 6 7 7
3 4 5 5 5 4 2 0 -1 -2 -2 -1 -0 1 2 3 4 3 2 1 1 1 3 6 9 11 10 6 3 1 1 0 -0 -1 -1 -1 1 2 4 5 5 5 5 6 8 10 12 13 12 10 8 6 6 6 8 10 12 12 11 10 9 8 8 7 7 7 7 7 7
3 4 5 5 4 3 1 -1 -2 -1 -1 1 2 4 5 6 6 6 6 6 6 6 7 10 13 13 10 5 1 -1 -0 0 -1 -2 -2 -2 -0 1 2 3 3 3 3 4 6 9 12 14 13 11 9 7 7 7 9 11 12 12 11 10 9 8 8 7 7 7 7 7 7
3 3 4 5 4 3 1 -1 -1 -1 0 2 4 5 6 7 8 8 7 7 7 7 8 11 14 14 11 6 2 1 1 1 0 -1 -2 -2 -1 -0 0 1 1 1 2 3 5 8 12 14 15 13 10 7 7 8 10 11 12 11 10 9 9 8 8 7 7 7 7 7 7
3 4 4 5 4 3 1 -0 -0 0 2 3 5 6 7 8 8 8 8 7 6 5 6 9 13 14 13 9 6 4 3 2 2 1 0 -0 -0 -0 -1 -1 0 1 1 1 3 7 11 14 16 14 12 8 7 8 10 12 12 11 10 9 9 8 8 7 7 7 7 7 7
4 4 5 5 4 3 1 1 1 2 3 5 6 7 8 8 8 8 7 5 4 3 4 7 11 13 13 11 9 7 5 4 3 3 2 1 0 -1 -1 -1 -0 1 1 1 2 6 10 14 16 16 13 10 8 9 10 12 12 11 10 9 9 8 8 7 7 7 7 7 7
5 5 6 6 5 3 2 2 2 3 5 6 7 7 7 7 6 5 4 3 2 2 5 9 11 12 12 10 8 6 5 4 3 3 2 2 1 -1 -2 -3 -0 1 2 1 2 4 8 13 16 16 14 11 9 9 10 12 11 11 10 9 9 8 8 7 7 7 7 7 7
5 6 6 6 5 4 4 3 4 5 6 7 7 7 6 5 3 2 1 1 1 4 7 11 12 12 10 8 7 5 4 3 3 3 3 3 1 -2 -4 -4 -1 1 2 1 1 3 7 11 15 16 15 12 10 10 11 11 11 10 10 9 8 8 7 7 7 7 7 7 7
6 6 7 7 6 5 4 4 5 6 6 7 7 6 5 3 1 0 -0 0 3 7 10 13 13 12 9 7 6 5 4 3 3 3 3 3 0 -3 -6 -6 -1 2 3 2 1 2 5 9 13 15 16 14 12 12 12 12 11 10 9 9 8 7 7 7 7 7 7 7 7
6 7 7 7 7 6 5 5 5 6 6 6 6 5 4 2 0 -1 -0 2 6 10 13 14 13 12 10 7 6 5 5 4 3 3 3 3 -0 -4 -6 -6 -2 2 4 3 1 2 4 8 12 14 16 15 14 13 13 12 11 10 9 8 7 7 7 7 7 7 7 7 7
7 7 8 8 7 7 6 6 6 6 6 6 5 4 2 0 -1 -1 1 4 8 11 13 13 13 11 9 7 6 6 5 5 4 3 3 2 -0 -3 -5 -5 -1 2 4 3 2 2 3 7 11 14 16 16 15 14 13 12 10 9 8 8 7 7 7 7 7 7 7 7 7
8 8 8 9 8 8 7 6 6 6 6 6 5 3 1 -1 -1 -0 2 5 8 10 11 11 10 10 8 7 7 6 5 5 4 3 2 2 0 -2 -4 -4 -1 2 4 3 2 2 3 6 11 14 17 18 17 15 13 11 10 9 8 7 7 7 7 7 7 7 7 7 7
9 9 10 10 10 9 8 7 6 6 6 5 4 2 -0 -2 -2 -0 3 5 6 8 8 9 8 8 8 7 6 6 5 4 4 3 2 2 0 -1 -1 -1 1 2 3 3 2 2 3 6 11 15 17 19 18 16 13 10 9 8 7 7 7 7 7 7 7 7 7 7 7
11 11 11 11 11 10 8 7 7 6 6 5 3 1 -1 -3 -2 0 2 3 4 5 6 7 8 8 8 7 6 4 4 3 3 3 3 2 1 1 1 2 2 3 3 2 2 2 3 6 11 16 19 20 19 16 13 10 8 7 7 7 6 7 7 7 7 7 7 7 7
12 13 13 13 12 11 9 8 7 7 6 5 3 1 -1 -2 -1 -0 0 0 1 3 6 8 9 9 8 6 4 3 3 2 2 3 3 3 2 3 3 3 3 3 2 2 2 2 4 7 12 16 19 21 20 17 13 9 8 7 7 6 6 7 7 7 7 7 7 7 7
12 13 13 13 13 12 11 9 8 7 6 5 3 1 -0 -1 -1 -1 -1 -2 0 4 7 9 10 9 7 5 3 3 2 2 2 2 3 3 3 4 4 4 4 3 3 2 2 3 4 8 13 16 19 21 20 16 12 8 7 7 7 7 6 7 7 7 7 7 7 7 7
8 9 10 11 12 12 12 11 9 8 6 5 3 1 0 -0 -1 -2 -3 -2 1 6 9 11 10 8 6 4 3 3 3 3 3 3 3 3 4 5 5 4 4 4 4 3 3 3 5 9 14 17 20 22 20 16 11 8 7 7 7 7 7 7 7 7 7 7 7 8 7
1 2 3 5 7 8 8 8 7 5 4 2 1 1 0 -1 -2 -4 -4 -1 5 9 11 11 9 7 5 4 3 3 3 3 4 4 4 4 4 4 4 4 5 5 5 4 3 4 6 9 14 18 21 23 20 15 10 8 7 7 6 6 6 7 7 7 7 7 7 7 7
-3 -3 -2 -1 1 2 2 2 2 1 1 0 0 -0 -1 -2 -4 -4 -1 5 9 12 12 11 8 6 4 4 3 3 3 4 4 4 4 3 3 3 4 5 6 6 6 4 4 4 7 10 15 19 22 24 20 15 10 7 7 6 6 6 6 7 7 7 7 7 7 7 7
-3 -3 -3 -2 -2 -2 -2 -1 -1 -2 -2 -2 -2 -2 -3 -5 -5 -1 5 11 13 13 11 9 6 5 4 4 4 4 4 5 4 4 3 2 3 4 5 7 7 7 5 3 3 5 7 11 16 20 23 24 19 14 9 7 7 6 6 6 6 7 7 7 7 7 7 7 7
2 1 -0 -1 -2 -3 -3 -4 -4 -5 -5 -4 -4 -5 -5 -4 1 7 11 13 13 11 9 7 5 4 4 4 4 4 5 5 3 2 1 2 3 6 7 9 8 6 4 3 4 5 8 12 17 21 23 24 18 13 9 7 6 6 6 6 6 7 7 7 7 7 7 7 7
10 9 8 6 4 2 -0 -2 -4 -4 -4 -4 -3 -2 -0 4 9 11 12 11 10 9 7 6 5 5 4 4 4 4 4 2 1 1 1 3 5 7 8 9 7 5 3 3 4 6 9 13 18 21 23 23 18 12 8 6 6 6 6 6 6 7 7 7 7 7 7 7 7
14 14 13 12 10 8 6 4 3 2 2 2 3 5 7 10 11 11 10 9 8 7 6 5 5 5 4 4 4 3 1 0 1 1 3 4 7 8 9 8 6 4 3 3 5 7 10 14 18 22 23 22 16 11 7 6 6 6 6 6 6 7 7 7 7 7 7 7 7
12 12 12 12 10 9 8 7 7 6 6 7 7 8 10 10 10 9 8 7 6 5 5 5 4 4 3 2 2 1 0 0 1 2 4 6 8 8 9 8 6 4 4 4 6 9 12 16 19 22 23 21 15 10 7 6 6 6 6 6 6 7 7 7 7 7 7 7 7
8 8 8 8 7 6 6 6 6 6 7 7 8 8 8 8 8 7 6 5 5 4 4 4 3 3 2 1 1 0 1 2 3 4 6 7 9 9 9 8 5 4 4 6 8 10 14 18 20 22 22 20 14 9 6 5 5 6 6 6 6 7 7 7 7 7 7 7 7
7 6 5 4 4 3 3 3 4 5 5 6 6 7 7 7 6 6 5 5 4 4 4 4 3 3 2 1 1 1 2 3 4 6 7 9 10 10 9 7 5 4 5 7 9 12 16 19 20 22 21 18 12 8 6 5 5 6 6 6 7 7 7 7 8 7 7 7 7
8 7 5 4 3 2 2 2 3 3 4 5 5 5 5 6 6 6 6 5 5 5 5 4 4 3 3 2 2 3 3 4 6 8 9 11 11 10 8 6 5 5 6 9 11 14 17 19 20 21 19 16 10 7 5 5 6 6 6 6 7 7 7 7 7 7 7 7 7
10 9 8 6 5 4 3 3 3 3 3 4 4 5 5 5 5 5 5 5 4 4 4 4 3 3 3 3 3 4 5 6 7 9 10 12 11 9 7 5 5 6 8 10 13 16 18 20 20 19 18 14 9 6 5 5 6 6 6 6 7 7 7 7 7 7 7 7 7
10 10 10 10 8 7 6 5 5 4 4 4 4 5 5 5 5 5 5 4 4 4 4 3 3 3 3 3 4 5 6 7 9 10 10 11 9 8 6 4 5 7 9 12 14 17 19 19 19 19 17 13 9 6 5 5 6 6 6 7 7 7 7 7 7 7 7 7 6
9 9 10 11 11 10 9 9 8 7 6 6 5 5 5 5 5 5 5 5 4 4 4 4 4 4 4 4 5 6 7 8 9 10 10 10 8 6 5 5 6 8 10 13 16 18 19 19 19 18 16 12 8 6 6 6 6 6 6 7 7 7 7 7 7 7 7 7 6
8 8 8 9 10 11 11 11 11 10 9 8 7 7 6 6 6 6 5 5 5 5 5 5 5 5 5 5 6 7 8 9 10 11 10 8 7 5 5 5 7 9 12 15 17 19 19 18 18 17 15 11 8 6 5 6 6 6 7 7 7 7 7 7 7 7 7 7 6
10 9 8 8 8 9 10 11 11 10 10 9 8 7 7 6 6 6 6 6 6 6 6 6 5 6 6 7 7 8 9 10 10 10 9 7 5 5 5 6 8 10 13 16 18 19 18 17 17 16 13 10 7 6 5 6 6 6 7 7 7 7 7 7 7 7 7 6 6
Height
5810 5811 5811 5811 5812 5812 5812 5811 5811 5811 5811 5810 5810 5810 5810 5811 5811 5810 5810 5810 5810 5809 5809 5809 5808 5808 5807 5806 5806 5805 5804 5803 5802 5801 5800 5799 5798 5796 5795 5794 5793 5791 5789 5788 5786 5785 5784 5782 5781 5779 5777 5776 5774 5772 5771 5769 5768 5766 5764 5763 5761 5759 5758 5756 5754 5753 5751 5749 5747
5809 5809 5809 5809 5809 5809 5809 5809 5809 5809 5809 5808 5809 5809 5809 5809 5809 5809 5809 5809 5808 5808 5808 5807 5807 5806 5806 5805 5804 5804 5803 5802 5801 5799 5799 5797 5796 5795 5794 5792 5791 5789 5788 5786 5785 5783 5782 5780 5779 5777 5775 5774 5772 5770 5769 5767 5766 5764 5762 5761 5759 5757 5756 5754 5752 5750 5749 5747 5745
5807 5807 5808 5808 5808 5808 5808 5808 5807 5807 5807 5806 5807 5807 5808 5808 5808 5808 5808 5808 5807 5807 5806 5806 5805 5805 5804 5804 5803 5802 5801 5800 5799 5798 5797 5796 5794 5793 5792 5790 5789 5788 5786 5784 5783 5781 5780 5778 5777 5775 5774 5772 5770 5769 5767 5765 5764 5762 5761 5759 5757 5755 5754 5752 5750 5749 5747 5744 5743
5805 5805 5806 5806 5806 5806 5806 5805 5805 5805 5805 5805 5805 5806 5806 5807 5807 5807 5806 5806 5806 5805 5805 5804 5804 5804 5803 5802 5801 5800 5799 5798 5797 5796 5795 5794 5793 5791 5790 5789 5787 5785 5784 5783 5781 5779 5778 5776 5775 5773 5772 5770 5769 5767 5765 5764 5762 5760 5759 5757 5755 5754 5752 5750 5748 5746 5744 5743 5741
5803 5804 5804 5804 5804 5804 5804 5804 5803 5803 5803 5804 5804 5804 5805 5805 5805 5805 5805 5804 5804 5804 5803 5803 5802 5802 5801 5800 5800 5799 5798 5796 5795 5794 5793 5792 5791 5790 5788 5787 5785 5784 5782 5781 5779 5778 5776 5774 5773 5771 5770 5769 5767 5765 5764 5762 5760 5759 5757 5755 5754 5752 5750 5748 5746 5744 5743 5741 5739
5802 5802 5802 5802 5802 5802 5802 5802 5801 5801 5801 5802 5803 5803 5804 5804 5804 5804 5804 5803 5803 5802 5801 5801 5800 5800 5799 5799 5798 5797 5796 5795 5794 5793 5791 5790 5789 5788 5786 5785 5783 5782 5780 5779 5777 5776 5774 5773 5771 5769 5768 5767 5765 5764 5762 5760 5759 5757 5755 5754 5752 5750 5748 5746 5744 5743 5741 5739 5737
5800 5800 5800 5800 5800 5800 5800 5800 5799 5799 5799 5800 5801 5802 5802 5802 5802 5802 5802 5801 5801 5800 5799 5799 5799 5798 5798 5797 5796 5795 5794 5793 5792 5791 5790 5789 5788 5786 5785 5783 5782 5780 5779 5777 5775 5774 5772 5771 5769 5768 5766 5765 5763 5762 5760 5759 5757 5755 5754 5752 5750 5748 5746 5744 5742 5741 5739 5737 5736
5798 5798 5798 5799 5799 5799 5798 5798 5798 5798 5798 5799 5799 5800 5800 5800 5800 5800 5800 5799 5799 5798 5798 5797 5797 5796 5796 5795 5794 5794 5793 5792 5791 5790 5789 5788 5786 5785 5783 5782 5780 5778 5777 5775 5774 5772 5770 5769 5768 5766 5764 5763 5761 5760 5758 5757 5755 5753 5752 5750 5748 5746 5744 5742 5741 5739 5737 5736 5734
5796 5796 5797 5797 5797 5797 5796 5796 5795 5795 5796 5797 5798 5798 5799 5799 5798 5798 5798 5797 5797 5796 5796 5795 5795 5794 5794 5793 5793 5792 5791 5790 5789 5788 5787 5786 5784 5783 5782 5780 5778 5777 5775 5774 5772 5770 5769 5767 5766 5764 5763 5761 5759 5758 5756 5755 5753 5751 5749 5748 5746 5744 5742 5741 5739 5737 5736 5734 5732
5794 5794 5795 5795 5795 5795 5794 5794 5794 5794 5794 5795 5796 5797 5797 5796 5796 5796 5795 5795 5795 5794 5794 5794 5793 5793 5792 5791 5790 5790 5789 5788 5787 5786 5785 5784 5783 5781 5780 5778 5776 5775 5773 5772 5770 5769 5767 5765 5764 5762 5761 5759 5758 5756 5754 5753 5751 5749 5748 5746 5744 5742 5741 5739 5737 5736 5734 5732 5730
5792 5792 5793 5793 5793 5793 5792 5792 5792 5792 5793 5794 5794 5794 5794 5794 5794 5793 5793 5793 5793 5793 5792 5792 5791 5790 5790 5789 5788 5788 5787 5786 5785 5784 5783 5782 5780 5779 5778 5776 5774 5773 5771 5769 5768 5767 5765 5764 5762 5760 5759 5757 5756 5754 5752 5751 5749 5747 5746 5744 5742 5741 5739 5737 5736 5734 5732 5730 5728
5790 5790 5791 5791 5791 5791 5790 5790 5791 5791 5792 5793 5793 5792 5792 5791 5791 5791 5791 5791 5790 5790 5790 5789 5789 5788 5788 5787 5786 5785 5784 5784 5783 5782 5781 5779 5778 5777 5775 5774 5772 5771 5769 5768 5766 5765 5763 5761 5760 5758 5757 5755 5754 5752 5751 5749 5747 5745 5744 5742 5740 5739 5737 5735 5734 5732 5730 5728 5726
5788 5788 5789 5789 5789 5789 5789 5789 5789 5790 5791 5791 5790 5790 5789 5789 5789 5788 5788 5788 5788 5788 5788 5787 5787 5786 5785 5784 5784 5783 5782 5781 5780 5779 5778 5777 5776 5774 5773 5772 5770 5769 5768 5766 5765 5763 5761 5759 5758 5756 5755 5753 5752 5750 5749 5747 5745 5744 5742 5740 5739 5737 5735 5734 5732 5730 5728 5726 5724
5786 5786 5787 5787 5787 5787 5787 5787 5788 5789 5789 5788 5788 5787 5787 5786 5786 5786 5786 5786 5786 5786 5785 5785 5784 5784 5783 5782 5782 5781 5780 5779 5778 5777 5776 5774 5773 5772 5771 5770 5769 5767 5766 5764 5763 5761 5760 5758 5756 5754 5753 5751 5750 5748 5747 5745 5743 5742 5740 5738 5737 5735 5733 5731 5730 5728 5726 5724 5723
5784 5784 5785 5785 5785 5785 5785 5786 5787 5787 5787 5786 5785 5784 5784 5783 5783 5783 5783 5784 5784 5784 5783 5783 5782 5781 5781 5780 5779 5778 5778 5777 5776 5775 5774 5772 5771 5770 5769 5768 5767 5765 5764 5763 5761 5760 5758 5756 5754 5753 5751 5749 5748 5746 5745 5743 5741 5740 5738 5736 5735 5733 5731 5729 5728 5726 5724 5723 5721
5782 5783 5783 5783 5783 5783 5784 5784 5784 5784 5784 5783 5782 5782 5781 5780 5780 5781 5781 5781 5781 5781 5781 5781 5780 5779 5779 5778 5777 5776 5775 5774 5774 5772 5771 5770 5769 5768 5767 5766 5765 5764 5762 5761 5759 5758 5756 5754 5753 5751 5749 5747 5746 5744 5743 5741 5739 5738 5736 5734 5733 5731 5729 5728 5726 5724 5723 5721 5719
5780 5781 5781 5781 5781 5782 5782 5782 5782 5782 5782 5781 5780 5779 5778 5778 5778 5779 5779 5779 5779 5779 5779 5779 5778 5777 5776 5775 5774 5774 5773 5772 5771 5770 5769 5768 5767 5766 5765 5764 5763 5762 5760 5759 5758 5756 5754 5752 5750 5749 5747 5745 5744 5742 5740 5739 5737 5736 5734 5732 5730 5729 5727 5726 5724 5723 5721 5719 5718
5778 5779 5779 5779 5779 5779 5780 5780 5780 5780 5779 5778 5777 5776 5775 5775 5776 5776 5777 5777 5777 5777 5776 5776 5775 5774 5774 5773 5772 5771 5770 5769 5769 5768 5767 5766 5765 5764 5763 5762 5761 5759 5758 5757 5755 5754 5752 5750 5749 5747 5745 5743 5742 5740 5739 5737 5735 5734 5732 5730 5729 5727 5725 5724 5722 5721 5719 5718 5716
5775 5776 5777 5777 5777 5777 5778 5778 5778 5777 5777 5775 5774 5774 5773 5773 5774 5774 5774 5774 5774 5774 5774 5773 5773 5772 5771 5770 5769 5769 5768 5767 5766 5765 5765 5764 5763 5762 5761 5760 5759 5757 5756 5755 5753 5752 5750 5749 5747 5745 5743 5741 5739 5738 5736 5735 5733 5732 5730 5729 5727 5725 5724 5722 5720 5719 5717 5716 5714
5773 5774 5774 5774 5775 5775 5775 5775 5775 5774 5774 5773 5772 5771 5771 5771 5771 5772 5772 5772 5772 5772 5771 5771 5770 5769 5769 5768 5767 5766 5765 5765 5764 5763 5762 5762 5761 5760 5759 5758 5756 5755 5754 5753 5751 5750 5748 5746 5744 5743 5741 5739 5738 5736 5734 5733 5731 5730 5728 5727 5725 5724 5722 5720 5719 5717 5715 5714 5712
5771 5771 5772 5772 5772 5772 5772 5772 5772 5772 5771 5770 5770 5769 5769 5769 5769 5770 5770 5770 5769 5769 5769 5768 5768 5767 5766 5765 5765 5764 5763 5762 5761 5761 5760 5759 5759 5758 5757 5756 5754 5753 5752 5750 5749 5748 5746 5744 5743 5741 5739 5737 5735 5734 5733 5731 5729 5728 5726 5725 5723 5722 5720 5719 5717 5715 5714 5712 5710
5768 5769 5769 5769 5769 5769 5769 5769 5769 5769 5769 5768 5768 5767 5766 5766 5767 5767 5768 5768 5767 5767 5766 5765 5765 5764 5764 5763 5762 5762 5761 5760 5759 5758 5757 5757 5756 5755 5754 5754 5752 5751 5750 5749 5747 5746 5744 5742 5740 5739 5737 5735 5734 5732 5730 5729 5728 5726 5725 5723 5722 5720 5719 5717 5715 5714 5712 5710 5709
5765 5766 5766 5767 5767 5767 5767 5767 5766 5766 5766 5766 5765 5764 5764 5764 5764 5765 5765 5765 5764 5764 5764 5763 5762 5762 5761 5760 5760 5759 5759 5758 5757 5756 5755 5754 5754 5753 5753 5751 5750 5749 5748 5747 5745 5744 5742 5740 5739 5737 5735 5733 5731 5730 5729 5727 5726 5724 5723 5721 5720 5718 5717 5715 5714 5712 5710 5709 5707
5762 5763 5764 5764 5764 5764 5764 5764 5764 5764 5764 5763 5763 5762 5762 5762 5762 5762 5763 5762 5762 5761 5761 5760 5759 5759 5759 5758 5757 5757 5756 5756 5755 5754 5754 5753 5752 5751 5750 5749 5749 5747 5746 5745 5743 5742 5740 5738 5736 5734 5733 5731 5729 5728 5727 5725 5724 5723 5721 5719 5718 5716 5715 5714 5712 5710 5709 5707 5705
5759 5760 5761 5761 5761 5762 5762 5762 5761 5761 5761 5760 5760 5759 5759 5759 5760 5760 5760 5760 5759 5759 5758 5757 5757 5756 5756 5755 5755 5754 5754 5753 5753 5752 5752 5751 5750 5749 5749 5748 5746 5745 5744 5743 5741 5740 5738 5736 5734 5732 5730 5729 5727 5726 5725 5724 5722 5721 5719 5718 5716 5715 5713 5712 5710 5709 5707 5705 5704
5756 5757 5758 5758 5759 5759 5759 5759 5759 5758 5758 5757 5757 5757 5757 5757 5757 5757 5757 5757 5756 5756 5755 5755 5754 5754 5754 5753 5752 5752 5751 5751 5750 5750 5749 5749 5748 5747 5747 5745 5744 5743 5742 5741 5739 5738 5736 5734 5732 5730 5729 5727 5725 5724 5723 5721 5720 5719 5717 5716 5714 5713 5712 5710 5709 5707 5705 5704 5702
5753 5754 5754 5755 5755 5755 5755 5755 5755 5755 5754 5754 5754 5754 5755 5755 5755 5755 5754 5754 5754 5753 5753 5752 5752 5751 5751 5750 5750 5749 5749 5748 5748 5748 5747 5747 5746 5745 5744 5743 5742 5741 5740 5739 5737 5735 5734 5732 5730 5728 5726 5725 5723 5722 5721 5719 5718 5717 5715 5714 5712 5711 5710 5709 5707 5705 5704 5702 5700
5750 5750 5751 5751 5752 5752 5752 5752 5751 5751 5751 5751 5752 5752 5752 5752 5752 5752 5752 5751 5751 5750 5750 5750 5749 5749 5749 5748 5747 5747 5746 5746 5746 5745 5745 5744 5744 5743 5742 5741 5740 5739 5738 5736 5735 5733 5731 5729 5728 5726 5724 5723 5721 5720 5719 5718 5716 5715 5713 5712 5711 5709 5708 5707 5705 5704 5702 5700 5699
5747 5747 5748 5748 5748 5748 5748 5748 5748 5748 5748 5749 5749 5749 5749 5750 5749 5749 5749 5749 5748 5748 5748 5747 5747 5746 5746 5745 5745 5744 5744 5744 5743 5743 5743 5742 5741 5741 5740 5739 5738 5737 5735 5734 5733 5731 5729 5727 5725 5724 5722 5721 5719 5718 5717 5715 5714 5713 5711 5710 5709 5707 5706 5705 5704 5702 5700 5699 5697
5744 5744 5744 5744 5744 5744 5744 5745 5745 5745 5745 5746 5746 5747 5747 5747 5747 5747 5746 5746 5746 5745 5745 5745 5744 5744 5743 5743 5742 5742 5741 5741 5741 5740 5740 5740 5739 5739 5738 5737 5736 5734 5733 5732 5730 5729 5727 5725 5723 5722 5720 5719 5717 5716 5714 5713 5712 5711 5709 5708 5707 5705 5704 5703 5702 5700 5699 5697 5695
5740 5741 5741 5741 5741 5741 5741 5741 5741 5742 5742 5743 5744 5744 5744 5744 5744 5744 5743 5743 5743 5743 5742 5742 5742 5741 5740 5740 5740 5739 5739 5739 5739 5738 5738 5737 5737 5736 5735 5734 5733 5732 5731 5729 5728 5726 5724 5723 5721 5719 5718 5716 5715 5714 5713 5711 5710 5709 5707 5706 5705 5704 5703 5701 5700 5699 5697 5695 5694
5737 5738 5738 5738 5738 5737 5737 5738 5738 5739 5739 5740 5740 5741 5741 5741 5741 5741 5740 5740 5740 5740 5739 5739 5739 5738 5738 5737 5737 5737 5737 5736 5736 5736 5736 5735 5734 5734 5733 5732 5731 5730 5729 5727 5725 5724 5722 5720 5719 5717 5716 5714 5713 5712 5710 5709 5708 5707 5705 5704 5703 5702 5701 5699 5698 5697 5695 5694 5692
5734 5734 5734 5734 5734 5734 5734 5734 5734 5735 5736 5736 5737 5737 5738 5738 5738 5738 5737 5737 5737 5737 5737 5736 5736 5735 5735 5735 5734 5734 5734 5734 5734 5734 5733 5733 5732 5731 5730 5730 5729 5728 5726 5725 5723 5721 5720 5718 5716 5715 5714 5712 5711 5710 5709 5707 5706 5704 5703 5702 5701 5700 5699 5698 5696 5695 5693 5692 5690
5730 5730 5731 5731 5730 5730 5730 5731 5731 5732 5732 5733 5734 5734 5734 5734 5734 5734 5734 5734 5734 5734 5734 5733 5733 5733 5733 5732 5732 5732 5732 5732 5732 5732 5731 5730 5730 5729 5728 5727 5726 5725 5724 5722 5721 5719 5717 5716 5714 5713 5711 5710 5709 5708 5706 5705 5704 5703 5702 5700 5699 5698 5697 5696 5694 5693 5691 5690 5688
5726 5727 5727 5727 5727 5727 5727 5728 5728 5729 5729 5730 5730 5730 5731 5731 5731 5731 5731 5731 5731 5731 5731 5730 5730 5730 5730 5730 5730 5730 5730 5730 5729 5729 5729 5728 5728 5727 5726 5725 5724 5723 5721 5720 5718 5717 5715 5714 5712 5710 5709 5708 5707 5705 5704 5703 5702 5701 5700 5699 5698 5696 5695 5694 5693 5691 5689 5688 5686
5722 5723 5723 5723 5723 5724 5724 5724 5725 5725 5726 5727 5727 5727 5728 5728 5728 5728 5728 5729 5729 5728 5728 5728 5728 5728 5728 5728 5728 5728 5728 5728 5727 5727 5726 5726 5725 5724 5724 5723 5721 5720 5719 5718 5716 5714 5713 5711 5710 5708 5707 5706 5705 5704 5702 5701 5700 5699 5698 5697 5696 5694 5694 5692 5691 5689 5688 5686 5684
5719 5719 5719 5719 5720 5720 5721 5722 5722 5723 5723 5724 5724 5724 5724 5725 5725 5725 5726 5726 5726 5726 5726 5726 5726 5725 5725 5725 5725 5725 5725 5725 5725 5724 5724 5724 5723 5722 5721 5720 5719 5718 5716 5715 5714 5712 5710 5709 5707 5706 5705 5704 5703 5702 5700 5699 5698 5697 5696 5695 5694 5693 5692 5690 5689 5688 5686 5684 5683
5715 5715 5716 5716 5717 5718 5718 5719 5719 5720 5720 5721 5721 5721 5722 5722 5722 5723 5723 5724 5724 5723 5723 5723 5723 5723 5723 5723 5723 5723 5723 5723 5723 5722 5722 5721 5720 5720 5719 5718 5716 5715 5714 5713 5711 5709 5708 5706 5705 5704 5703 5702 5701 5699 5699 5698 5697 5695 5694 5694 5692 5691 5690 5689 5688 5686 5684 5683 5681
5712 5712 5713 5714 5714 5714 5715 5716 5716 5717 5718 5718 5719 5719 5719 5719 5720 5720 5720 5721 5721 5721 5721 5721 5721 5721 5721 5721 5721 5721 5720 5720 5720 5719 5719 5719 5718 5717 5716 5715 5714 5713 5711 5710 5709 5707 5705 5704 5703 5702 5701 5700 5699 5698 5697 5696 5695 5694 5693 5692 5691 5689 5688 5687 5686 5684 5683 5681 5679
5708 5709 5710 5710 5711 5712 5712 5713 5714 5714 5715 5715 5716 5716 5716 5717 5717 5718 5718 5718 5718 5718 5718 5718 5719 5719 5719 5719 5719 5718 5718 5718 5717 5717 5717 5716 5715 5714 5714 5713 5711 5710 5709 5707 5706 5704 5703 5702 5701 5699 5699 5698 5697 5696 5695 5694 5693 5692 5691 5690 5689 5688 5687 5685 5684 5683 5681 5679 5677
5705 5706 5707 5707 5708 5709 5709 5710 5711 5712 5712 5713 5714 5714 5714 5714 5715 5715 5716 5716 5716 5716 5716 5716 5716 5716 5716 5716 5716 5716 5716 5715 5715 5714 5714 5714 5713 5712 5711 5710 5709 5707 5706 5704 5703 5702 5701 5699 5699 5697 5696 5696 5695 5694 5693 5692 5692 5691 5689 5689 5687 5686 5685 5684 5682 5681 5679 5678 5676